Torna al catalogo

CIEL-2

AttivoComunicazioniGEO
NORAD 33453·PAYLOAD·🇨🇦 Canada

Lanciato Dec 10, 2008 da Baikonur Cosmodrome

Loading…

TLE

AggiornatoSource: Space-Track

Epoca: Sep 14, 2026, 13:12 UTC

1 33453U 08063A   26257.55044412  .00000065  00000-0  00000-0 0  9993
2 33453   3.0181  79.6982 0008225 355.6170 351.6229  0.99021538 64902

Traccia CIEL-2 in tempo reale con AllMySat

Download on the App Store